[ hide orbit diagram ]
For accurate long-term ephemerides, please instead use our Horizons system.This orbit viewer was implemented using two-body methods, and hence should not be used for determining accurate long-term trajectories (over several years or decades) or planetary encounter circumstances.
Orbital Elements at Epoch 2459200.5 (2020-Dec-17.0) TDB
Reference: JPL 84 (heliocentric ecliptic J2000)
Element | Value | Uncertainty (1-sigma) | Units |
e | .1905792679943211 | 3.3067e-08 | |
a | 2.610158536880778 | 7.2759e-09 | au |
q | 2.112716433572912 | 8.6326e-08 | au |
i | 9.535684847216624 | 3.0477e-06 | deg |
node | 202.6915567116057 | 2.2482e-05 | deg |
peri | 91.14679115220567 | 2.3822e-05 | deg |
M | 283.6966835354458 | 9.6277e-06 | deg |
tp | 2459526.967287226709 (2021-Nov-08.46728723) | 4.1557e-05 | TDB |
period | 1540.276738249138 4.22 | 6.4404e-06 1.763e-08 | d yr |
n | .2337242334836654 | 9.7727e-10 | deg/d |
Q | 3.107600640188645 | 8.6626e-09 | au |
|
| | Orbit Determination Parameters
Additional Information
|
[ show covariance matrix ]
Physical Parameter Table
Parameter |
Symbol |
Value |
Units |
Sigma |
Reference |
Notes |
absolute magnitude |
H |
9.79 |
|
n/a |
E2021B10 |
IRAS observations used: 23 |
diameter |
diameter |
60.450 |
km |
0.777 |
urn:nasa:pds:neowise_diameters_albedos::2.0[mainbelt] (http://adsabs.harvard.edu/abs/2012ApJ...759L...8M) |
|
rotation period |
rot_per |
19.4 |
h |
n/a |
LCDB (Rev. 2020-October); Warner et al., 2009 |
Published Reference List: [Harris, A.W.; Young, J.W. (1983) Icarus 54, 59-109.] [Harris, A.W.; Young, J.W. (1989) Icarus 81, 314-364.] [Piironen, J.; Bowell, E.; Erikson, A.; Magnusson, P. (1994) Astron. Astrophys. Suppl. Ser. 106, 587-595.] [Hanus, J.; Durech, J.; Broz, M.; Warner, B.D.; et al. (2011) Astron. Astrophys. 530, A134.] |
geometric albedo |
albedo |
0.062 |
|
0.010 |
urn:nasa:pds:neowise_diameters_albedos::2.0[mainbelt] (http://adsabs.harvard.edu/abs/2012ApJ...759L...8M) |
|
B-V |
BV |
0.735 |
|
0.020 |
EAR-A-5-DDR-UBV-MEAN-VALUES-V1.2 |
#obs=2; phase (min.=9.92, mean=10.20, max.=10.49) deg. |
U-B |
UB |
0.300 |
|
0.156 |
EAR-A-5-DDR-UBV-MEAN-VALUES-V1.2 |
#obs=2; phase (min.=9.92, mean=10.20, max.=10.49) deg. |
Tholen spectral type |
spec_T |
PD |
|
n/a |
EAR-A-5-DDR-TAXONOMY-V4.0 |
used 2 color indices; used ground-based radiometric albedo |
|
510 Mabella (A903 KA) Discovered 1903-May-20 by Dugan, R. S. at Heidelberg |
Reference: DISCOVERY.DB | Last Updated: 2003-08-29 |
|
[ hide close-approach data ]
Close-Approach Data ...sorted by Date/Time (TDB)
|
Date/Time (TDB) |
Time Uncertainty (days_HH:MM) |
Body |
Nominal Distance (au) |
Minimum Distance (au) |
Maximum Distance (au) |
V-relative (km/s) |
V-infinity (km/s) |
JD (TDB) |
Time Uncertainty (minutes) |
Semi-major axis (km) |
Semi-minor axis (km) |
range-LOV angle (deg) |
N-sigma |
BP |
Orbit Ref. |
Reference |
Modified |
2172-Aug-23 18:17 |
< 00:01 |
Amphi |
0.0250197485457138 |
0.0250163505008801 |
0.0250231491342172 |
6.53623419259396 |
6.53623415744096 |
2514602.261685194 |
0.859763615799009 |
436.952842801144 |
26.6611151546414 |
-67.4343425497431 |
129653.058354355 |
T |
84 |
CATAB v2.0f-lin.ifort 2021-Feb-24 00:47:25 |
2021-Feb-24 00:47 |
|
Alternate Designations
A903 KA = 1946 UO = A907 GO |
|
|